Sauk Centre, MN

10:52 AM CST on December 07, 2019 (GMT -0600)
Sauk Centre

Weather History for KD39 - October, 2019

Change the Weather History Date:

Thursday, October 17, 2019

  Actual Average (KGHW) Record (KGHW)
Temperature  
Mean Temperature 42 °F -  
Max Temperature 55 °F 57 °F 80 °F (1961)
Min Temperature 28 °F 33 °F 12 °F (1952)
Degree Days  
Heating Degree Days 24    
Moisture  
Dew Point 36 °F    
Average Humidity 81    
Maximum Humidity 100    
Minimum Humidity 56    
Precipitation  
Precipitation 0.00 in - - ()
Sea Level Pressure  
Sea Level Pressure 29.92 in    
Wind  
Wind Speed 5 mph ()    
Max Wind Speed 16 mph    
Max Gust Speed 21 mph    
Visibility 8.7 miles    
Events Fog    
Averages and records for this station are not official NWS values.
T = Trace of Precipitation, MM = Missing Value Source: Averaged Metar Reports

Daily Weather History Graph

Daily Weather History Graph

Search for Another Location

Airport or City:

Astronomy

Oct. 17, 2019 Rise Set
Actual Time 7:38 AM CDT 6:30 PM CDT
Civil Twilight 7:08 AM CDT 7:00 PM CDT
Nautical Twilight 6:34 AM CDT 7:35 PM CDT
Astronomical Twilight 5:59 AM CDT 8:09 PM CDT
Moon 8:53 PM CDT (10/17) 11:20 AM CDT (10/17)
Length of Visible Light 11h 52m
Length of Day
10h 52m
Waning Gibbous, 86% of the Moon is Illuminated
Oct 17
Waning Gibbous
Oct 21
Last Quarter
Oct 27
New
Nov 4
First Quarter
Nov 12
Full

Hourly Weather History & Observations

Time (CDT) Temp. Windchill Dew Point Humidity Pressure Visibility Wind Dir Wind Speed Gust Speed Precip Events Conditions
12:15 AM 35.1 °F - 34.5 °F 98% 30.03 in 10.0 mi Calm Calm - N/A   Scattered Clouds
12:35 AM 34.7 °F - 34.2 °F 98% 30.03 in 10.0 mi Calm Calm - N/A   Clear
12:36 AM 34.7 °F - 34.2 °F 98% 30.03 in 10.0 mi Calm Calm - N/A   Clear
12:59 AM 33.8 °F - 33.8 °F 100% 30.03 in 10.0 mi Calm Calm - N/A   Clear
1:16 AM 33.4 °F - 33.3 °F 99% 30.02 in 10.0 mi Calm Calm - N/A   Mostly Cloudy
1:36 AM 33.6 °F - 33.4 °F 99% 30.03 in 10.0 mi Calm Calm - N/A   Mostly Cloudy
1:55 AM 32.0 °F - 31.8 °F 99% 30.01 in 7.0 mi Calm Calm - N/A   Overcast
1:56 AM 32.0 °F - 31.8 °F 99% 30.01 in 7.0 mi Calm Calm - N/A   Mostly Cloudy
2:15 AM 32.0 °F 27.5 °F 31.8 °F 99% 30.00 in 10.0 mi SSE 4.6 mph - N/A   Scattered Clouds
2:19 AM 31.5 °F 28.1 °F 31.3 °F 99% 30.00 in 10.0 mi SSE 3.5 mph - N/A   Scattered Clouds
2:38 AM 32.0 °F - 32.0 °F 100% 30.01 in 10.0 mi Calm Calm - N/A   Clear
2:55 AM 32.0 °F - 32.0 °F 100% 30.01 in 10.0 mi Calm Calm - N/A   Clear
3:15 AM 31.5 °F 28.1 °F 31.3 °F 99% 30.00 in 7.0 mi SE 3.5 mph - N/A   Clear
3:16 AM 31.5 °F 28.1 °F 31.3 °F 99% 30.00 in 7.0 mi SE 3.5 mph - N/A   Clear
3:35 AM 31.1 °F - 31.1 °F 100% 29.99 in 7.0 mi Calm Calm - N/A   Clear
3:36 AM 31.1 °F - 30.9 °F 99% 29.99 in 7.0 mi Calm Calm - N/A   Clear
3:58 AM 30.7 °F - 30.7 °F 100% 29.99 in 1.0 mi Calm Calm - N/A   Mostly Cloudy
4:17 AM 30.2 °F - 30.2 °F 100% 30.00 in 0.2 mi Calm Calm - N/A Fog Light Freezing Fog
4:36 AM 29.7 °F - 29.7 °F 100% 29.99 in 0.2 mi Calm Calm - N/A Fog Light Freezing Fog
4:55 AM 28.9 °F - 28.9 °F 100% 29.99 in 0.2 mi Calm Calm - N/A Fog Light Freezing Fog
4:56 AM 29.1 °F - 29.1 °F 100% 29.99 in 0.2 mi Calm Calm - N/A Fog Light Freezing Fog
5:15 AM 29.8 °F - 29.8 °F 100% 29.99 in 0.5 mi Calm Calm - N/A Fog Light Freezing Fog
5:19 AM 29.8 °F - 29.8 °F 100% 29.99 in 0.5 mi Calm Calm - N/A Fog Light Freezing Fog
5:37 AM 31.1 °F 27.7 °F 31.1 °F 100% 29.98 in 7.0 mi ESE 3.5 mph - N/A   Scattered Clouds
5:55 AM 30.4 °F 26.9 °F 30.4 °F 100% 29.99 in 7.0 mi ESE 3.5 mph - N/A   Clear
6:15 AM 28.9 °F 25.2 °F 28.9 °F 100% 29.99 in 5.0 mi ESE 3.5 mph - N/A   Clear
6:16 AM 29.1 °F 25.4 °F 29.1 °F 100% 29.99 in 5.0 mi ESE 3.5 mph - N/A   Clear
6:35 AM 30.2 °F 26.7 °F 30.2 °F 100% 29.99 in 5.0 mi ESE 3.5 mph - N/A   Clear
6:36 AM 30.2 °F 26.7 °F 30.2 °F 100% 29.99 in 5.0 mi ESE 3.5 mph - N/A   Clear
6:58 AM 30.9 °F 27.5 °F 30.9 °F 100% 29.99 in 7.0 mi ESE 3.5 mph - N/A   Clear
7:17 AM 30.2 °F 26.7 °F 30.2 °F 100% 29.98 in 7.0 mi East 3.5 mph - N/A   Clear
7:36 AM 29.7 °F 24.7 °F 29.7 °F 100% 29.98 in 5.0 mi ESE 4.6 mph - N/A   Clear
7:55 AM 30.9 °F 27.5 °F 30.9 °F 100% 29.99 in 7.0 mi East 3.5 mph - N/A   Clear
7:56 AM 30.7 °F 27.3 °F 30.7 °F 100% 29.99 in 7.0 mi East 3.5 mph - N/A   Clear
8:15 AM 31.5 °F 26.8 °F 31.5 °F 100% 29.98 in 7.0 mi East 4.6 mph - N/A   Clear
8:19 AM 31.6 °F 26.0 °F 31.6 °F 100% 29.98 in 7.0 mi East 5.8 mph - N/A   Clear
8:37 AM 32.2 °F 26.7 °F 32.2 °F 100% 29.98 in 7.0 mi East 5.8 mph - N/A   Clear
8:56 AM 33.3 °F 27.1 °F 33.3 °F 100% 29.98 in 10.0 mi ESE 6.9 mph - N/A   Clear
9:15 AM 34.9 °F 29.0 °F 34.7 °F 99% 29.98 in 10.0 mi ESE 6.9 mph - N/A   Clear
9:16 AM 34.9 °F 29.0 °F 34.9 °F 100% 29.98 in 10.0 mi ESE 6.9 mph - N/A   Clear
9:35 AM 37.0 °F 33.3 °F 36.5 °F 98% 29.98 in 10.0 mi SE 4.6 mph - N/A   Clear
9:39 AM 37.8 °F 33.3 °F 36.9 °F 97% 29.98 in 10.0 mi SE 5.8 mph - N/A   Clear
9:57 AM 39.4 °F 33.8 °F 36.9 °F 91% 29.98 in 10.0 mi SE 8.1 mph - N/A   Clear
10:16 AM 41.7 °F 36.7 °F 37.6 °F 85% 29.98 in 10.0 mi SE 8.1 mph - N/A   Clear
10:35 AM 43.5 °F 38.9 °F 37.6 °F 80% 29.98 in 10.0 mi SE 8.1 mph - N/A   Clear
10:36 AM 43.5 °F 38.3 °F 37.6 °F 80% 29.98 in 10.0 mi SE 9.2 mph - N/A   Clear
10:55 AM 44.8 °F 39.9 °F 37.6 °F 76% 29.98 in 10.0 mi SE 9.2 mph - N/A   Clear
10:56 AM 44.8 °F 39.9 °F 37.8 °F 76% 29.98 in 10.0 mi SE 9.2 mph - N/A   Clear
11:18 AM 46.8 °F - 38.7 °F 73% 29.98 in 10.0 mi SSE 11.5 mph 16.1 mph N/A   Clear
11:36 AM 47.7 °F - 37.9 °F 69% 29.98 in 10.0 mi SE 11.5 mph 17.3 mph N/A   Clear
11:56 AM 49.1 °F - 38.1 °F 66% 29.96 in 10.0 mi SE 10.4 mph - N/A   Clear
12:15 PM 50.2 °F - 39.2 °F 66% 29.95 in 10.0 mi SE 11.5 mph 18.4 mph N/A   Clear
12:16 PM 50.4 °F - 39.0 °F 65% 29.95 in 10.0 mi SE 12.7 mph 18.4 mph N/A   Clear
12:35 PM 50.9 °F - 38.8 °F 63% 29.95 in 10.0 mi SE 12.7 mph 16.1 mph N/A   Clear
12:57 PM 51.6 °F - 39.0 °F 62% 29.94 in 10.0 mi SE 15.0 mph 20.7 mph N/A   Clear
1:15 PM 52.0 °F - 39.0 °F 61% 29.93 in 10.0 mi SE 10.4 mph - N/A   Clear
1:35 PM 52.9 °F - 39.4 °F 60% 29.92 in 10.0 mi SE 13.8 mph 18.4 mph N/A   Clear
1:36 PM 52.9 °F - 39.2 °F 60% 29.92 in 10.0 mi ESE 13.8 mph 18.4 mph N/A   Clear
1:55 PM 53.8 °F - 40.1 °F 60% 29.91 in 10.0 mi SE 10.4 mph 17.3 mph N/A   Clear
2:17 PM 53.8 °F - 39.2 °F 58% 29.89 in 10.0 mi ESE 12.7 mph - N/A   Clear
2:35 PM 54.1 °F - 39.4 °F 57% 29.89 in 10.0 mi ESE 16.1 mph - N/A   Clear
2:36 PM 54.1 °F - 39.4 °F 57% 29.89 in 10.0 mi ESE 13.8 mph 18.4 mph N/A   Clear
2:55 PM 54.5 °F - 39.4 °F 57% 29.89 in 10.0 mi ESE 15.0 mph 19.6 mph N/A   Clear
2:56 PM 54.5 °F - 39.4 °F 57% 29.89 in 10.0 mi ESE 13.8 mph 19.6 mph N/A   Clear
3:15 PM 55.0 °F - 39.9 °F 57% 29.88 in 10.0 mi ESE 12.7 mph 17.3 mph N/A   Clear
3:19 PM 55.0 °F - 39.6 °F 56% 29.88 in 10.0 mi ESE 15.0 mph - N/A   Clear
3:37 PM 55.4 °F - 40.1 °F 56% 29.87 in 10.0 mi ESE 13.8 mph - N/A   Clear
3:56 PM 55.4 °F - 39.9 °F 56% 29.86 in 10.0 mi ESE 11.5 mph 18.4 mph N/A   Clear
4:15 PM 54.9 °F - 39.7 °F 57% 29.86 in 10.0 mi ESE 12.7 mph - N/A   Clear
4:16 PM 54.9 °F - 39.7 °F 57% 29.86 in 10.0 mi ESE 15.0 mph - N/A   Clear
4:35 PM 54.5 °F - 39.4 °F 57% 29.85 in 10.0 mi ESE 11.5 mph 18.4 mph N/A   Clear
4:39 PM 54.5 °F - 40.1 °F 58% 29.85 in 10.0 mi ESE 13.8 mph - N/A   Clear
4:57 PM 54.3 °F - 39.6 °F 57% 29.85 in 10.0 mi ESE 13.8 mph 19.6 mph N/A   Clear
5:16 PM 52.7 °F - 39.2 °F 60% 29.85 in 10.0 mi ESE 12.7 mph - N/A   Clear
5:35 PM 52.5 °F - 39.9 °F 62% 29.85 in 10.0 mi ESE 10.4 mph - N/A   Clear
5:55 PM 51.6 °F - 39.4 °F 63% 29.84 in 10.0 mi ESE 10.4 mph - N/A   Clear
5:56 PM 51.6 °F - 39.4 °F 63% 29.84 in 10.0 mi ESE 10.4 mph - N/A   Clear
6:18 PM 49.5 °F - 39.2 °F 68% 29.84 in 10.0 mi ESE 9.2 mph - N/A   Clear
6:36 PM 48.4 °F - 39.0 °F 70% 29.85 in 10.0 mi ESE 8.1 mph - N/A   Clear
6:55 PM 48.0 °F - 38.5 °F 70% 29.84 in 10.0 mi East 9.2 mph - N/A   Clear
6:56 PM 48.0 °F - 38.5 °F 70% 29.84 in 10.0 mi East 9.2 mph - N/A   Clear
7:15 PM 47.3 °F - 38.3 °F 71% 29.83 in 10.0 mi ESE 10.4 mph - N/A   Clear
7:16 PM 47.3 °F - 38.3 °F 71% 29.83 in 10.0 mi ESE 10.4 mph - N/A   Clear
7:37 PM 46.8 °F - 37.8 °F 71% 29.82 in 10.0 mi East 10.4 mph - N/A   Clear
7:55 PM 46.6 °F - 37.4 °F 70% 29.82 in 10.0 mi East 10.4 mph - N/A   Clear
8:15 PM 46.0 °F 41.4 °F 37.4 °F 72% 29.82 in 10.0 mi ESE 9.2 mph - N/A   Clear
8:16 PM 46.0 °F 41.4 °F 37.4 °F 72% 29.82 in 10.0 mi ESE 9.2 mph - N/A   Clear
8:35 PM 45.7 °F 40.6 °F 37.4 °F 73% 29.82 in 10.0 mi ESE 10.4 mph - N/A   Clear
8:36 PM 45.7 °F 40.2 °F 37.4 °F 73% 29.82 in 10.0 mi ESE 11.5 mph - N/A   Clear
8:59 PM 45.5 °F 40.3 °F 37.4 °F 73% 29.81 in 10.0 mi ESE 10.4 mph - N/A   Clear
9:15 PM 44.6 °F 39.2 °F 37.4 °F 76% 29.81 in 10.0 mi ESE 10.4 mph - N/A   Clear
9:35 PM 45.0 °F 38.9 °F 37.4 °F 75% 29.80 in 10.0 mi ESE 12.7 mph - N/A   Clear
9:55 PM 45.0 °F 39.7 °F 37.4 °F 75% 29.81 in 10.0 mi ESE 10.4 mph - N/A   Clear
9:56 PM 44.8 °F 39.4 °F 37.4 °F 75% 29.82 in 10.0 mi ESE 10.4 mph - N/A   Clear
10:18 PM 44.6 °F 39.2 °F 37.4 °F 76% 29.81 in 10.0 mi ESE 10.4 mph - N/A   Clear
10:35 PM 44.8 °F 39.9 °F 37.4 °F 75% 29.82 in 10.0 mi ESE 9.2 mph - N/A   Clear
10:55 PM 44.4 °F 39.0 °F 37.6 °F 77% 29.81 in 10.0 mi ESE 10.4 mph - N/A   Clear
10:56 PM 44.4 °F 38.6 °F 37.4 °F 76% 29.81 in 10.0 mi ESE 11.5 mph - N/A   Clear
11:15 PM 45.0 °F 39.3 °F 37.6 °F 75% 29.81 in 10.0 mi ESE 11.5 mph - N/A   Clear
11:16 PM 45.0 °F 39.7 °F 37.6 °F 75% 29.81 in 10.0 mi ESE 10.4 mph 17.3 mph N/A   Clear
11:38 PM 45.5 °F 39.9 °F 37.6 °F 74% 29.80 in 10.0 mi ESE 11.5 mph - N/A   Clear
11:57 PM 45.5 °F 39.9 °F 37.8 °F 74% 29.79 in 10.0 mi ESE 11.5 mph 19.6 mph N/A   Clear